Year,Month,Day,Hour,Minute,Value (Times are PST for temperature in C)
2013,04,15,10,51,10.50
2013,04,15,10,52,10.50
2013,04,15,10,53,10.60
2013,04,15,10,54,10.50
2013,04,15,10,55,10.40
2013,04,15,10,56,10.40
2013,04,15,10,57,10.40
2013,04,15,10,58,10.40
2013,04,15,10,59,10.40
2013,04,15,11,00,10.40
2013,04,15,11,01,10.40
2013,04,15,11,02,10.40
2013,04,15,11,03,10.40
2013,04,15,11,04,10.40
2013,04,15,11,05,10.50
2013,04,15,11,06,10.60
2013,04,15,11,07,10.50
2013,04,15,11,08,10.50
2013,04,15,11,09,10.50
2013,04,15,11,10,10.60
2013,04,15,11,11,10.60
2013,04,15,11,12,10.60
2013,04,15,11,13,10.60
2013,04,15,11,14,10.50
2013,04,15,11,15,10.50
2013,04,15,11,16,10.50
2013,04,15,11,17,10.50
2013,04,15,11,18,10.60
2013,04,15,11,19,10.60
2013,04,15,11,20,10.70
2013,04,15,11,21,10.80
2013,04,15,11,22,10.80
2013,04,15,11,23,10.80
2013,04,15,11,24,10.90
2013,04,15,11,25,11.00
2013,04,15,11,26,11.00
2013,04,15,11,27,11.00
2013,04,15,11,28,10.90
2013,04,15,11,29,10.90
2013,04,15,11,30,10.80
2013,04,15,11,31,10.80
2013,04,15,11,32,10.80
2013,04,15,11,33,10.90
2013,04,15,11,34,10.90
2013,04,15,11,35,11.00
2013,04,15,11,36,11.10
2013,04,15,11,37,11.20
2013,04,15,11,38,11.30
2013,04,15,11,39,11.30
2013,04,15,11,40,11.40
2013,04,15,11,41,11.40
2013,04,15,11,42,11.40
2013,04,15,11,43,11.50
2013,04,15,11,44,11.50
2013,04,15,11,45,11.50
2013,04,15,11,46,11.50
2013,04,15,11,47,11.40
2013,04,15,11,48,11.40
2013,04,15,11,49,11.30
2013,04,15,11,50,11.30
2013,04,15,11,51,11.30
2013,04,15,11,52,11.30
2013,04,15,11,53,11.30
2013,04,15,11,54,11.30
2013,04,15,11,55,11.40
2013,04,15,11,56,11.40
2013,04,15,11,57,11.50
2013,04,15,11,58,11.60
2013,04,15,11,59,11.60
2013,04,15,12,00,11.70
2013,04,15,12,01,11.80
2013,04,15,12,02,11.80
2013,04,15,12,03,11.90
2013,04,15,12,04,11.90
2013,04,15,12,05,11.90
2013,04,15,12,06,11.90
2013,04,15,12,07,12.00
2013,04,15,12,08,12.00
2013,04,15,12,09,12.10
2013,04,15,12,10,12.10
2013,04,15,12,11,12.00
2013,04,15,12,12,11.90
2013,04,15,12,13,11.90
2013,04,15,12,14,11.80
2013,04,15,12,15,11.80
2013,04,15,12,16,11.80
2013,04,15,12,17,11.80
2013,04,15,12,18,11.80
2013,04,15,12,19,11.80
2013,04,15,12,20,11.90
2013,04,15,12,21,11.90
2013,04,15,12,22,11.90
2013,04,15,12,23,11.90
2013,04,15,12,24,11.90
2013,04,15,12,25,11.90
2013,04,15,12,26,11.90
2013,04,15,12,27,12.00
2013,04,15,12,28,12.00
2013,04,15,12,29,12.00
2013,04,15,12,30,12.00
2013,04,15,12,31,12.10
2013,04,15,12,32,12.00
2013,04,15,12,33,12.00
2013,04,15,12,34,12.10
2013,04,15,12,35,12.10
2013,04,15,12,36,12.10
2013,04,15,12,37,12.20
2013,04,15,12,38,12.20
2013,04,15,12,39,12.30
2013,04,15,12,40,12.30
2013,04,15,12,41,12.40
2013,04,15,12,42,12.40
2013,04,15,12,43,12.40
2013,04,15,12,44,12.40
2013,04,15,12,45,12.40
2013,04,15,12,46,12.40
2013,04,15,12,47,12.30
2013,04,15,12,48,12.30
2013,04,15,12,49,12.30
2013,04,15,12,50,12.30
2013,04,15,12,51,12.30
2013,04,15,12,52,12.30
2013,04,15,12,53,12.40
2013,04,15,12,54,12.50
2013,04,15,12,55,12.50
2013,04,15,12,56,12.60
2013,04,15,12,57,12.70
2013,04,15,12,58,12.70
2013,04,15,12,59,12.80
2013,04,15,13,00,12.80
2013,04,15,13,01,12.90
2013,04,15,13,02,12.90
2013,04,15,13,03,13.00
2013,04,15,13,04,13.00
2013,04,15,13,05,13.00
2013,04,15,13,06,13.00
2013,04,15,13,07,13.10
2013,04,15,13,08,13.10
2013,04,15,13,09,13.10
2013,04,15,13,10,13.10
2013,04,15,13,11,13.20
2013,04,15,13,12,13.10
2013,04,15,13,13,13.00
2013,04,15,13,14,12.90
2013,04,15,13,15,12.90
2013,04,15,13,16,12.80
2013,04,15,13,17,12.70
2013,04,15,13,18,12.60
2013,04,15,13,19,12.60
2013,04,15,13,20,12.60
2013,04,15,13,21,12.70
2013,04,15,13,22,12.70
2013,04,15,13,23,12.70
2013,04,15,13,24,12.70
2013,04,15,13,25,12.60
2013,04,15,13,26,12.60
2013,04,15,13,27,12.60
2013,04,15,13,28,12.60
2013,04,15,13,29,12.60
2013,04,15,13,30,12.70
2013,04,15,13,31,12.80
2013,04,15,13,32,12.80
2013,04,15,13,33,12.90
2013,04,15,13,34,13.00
2013,04,15,13,35,13.10
2013,04,15,13,36,13.10
2013,04,15,13,37,13.20
2013,04,15,13,38,13.20
2013,04,15,13,39,13.30
2013,04,15,13,40,13.40
2013,04,15,13,41,13.40
2013,04,15,13,42,13.40
2013,04,15,13,43,13.40
2013,04,15,13,44,13.50
2013,04,15,13,45,13.50
2013,04,15,13,46,13.50
2013,04,15,13,47,13.60
2013,04,15,13,48,13.50
2013,04,15,13,49,13.60
2013,04,15,13,50,13.50
2013,04,15,13,51,13.50
2013,04,15,13,52,13.50
2013,04,15,13,53,13.60
2013,04,15,13,54,13.60
2013,04,15,13,55,13.60
2013,04,15,13,56,13.60
2013,04,15,13,57,13.70
2013,04,15,13,58,13.70
2013,04,15,13,59,13.70
2013,04,15,14,00,13.70
2013,04,15,14,01,13.70
2013,04,15,14,02,13.70
2013,04,15,14,03,13.70
2013,04,15,14,04,13.80
2013,04,15,14,05,13.80
2013,04,15,14,06,13.80
2013,04,15,14,07,13.80
2013,04,15,14,08,13.80
2013,04,15,14,09,13.80
2013,04,15,14,10,13.80
2013,04,15,14,11,13.90
2013,04,15,14,12,13.90
2013,04,15,14,13,13.80
2013,04,15,14,14,13.80
2013,04,15,14,15,13.90
2013,04,15,14,16,13.90
2013,04,15,14,17,14.00
2013,04,15,14,18,14.00
2013,04,15,14,19,14.10
2013,04,15,14,20,14.10
2013,04,15,14,21,14.10
2013,04,15,14,22,14.00
2013,04,15,14,23,14.00
2013,04,15,14,24,14.00
2013,04,15,14,25,13.90
2013,04,15,14,26,13.90
2013,04,15,14,27,13.90
2013,04,15,14,28,13.90
2013,04,15,14,29,13.90
2013,04,15,14,30,13.90
2013,04,15,14,31,13.90
2013,04,15,14,32,14.00
2013,04,15,14,33,13.90
2013,04,15,14,34,13.90
2013,04,15,14,35,13.80
2013,04,15,14,36,13.70
2013,04,15,14,37,13.50
2013,04,15,14,38,13.50
2013,04,15,14,39,13.50
2013,04,15,14,40,13.50
2013,04,15,14,41,13.50
2013,04,15,14,42,13.60
2013,04,15,14,43,13.70
2013,04,15,14,44,13.70
2013,04,15,14,45,13.80
2013,04,15,14,46,13.80
2013,04,15,14,47,13.90
2013,04,15,14,48,14.00
2013,04,15,14,49,14.10
2013,04,15,14,50,14.10
2013,04,15,14,51,14.20
2013,04,15,14,52,14.20
2013,04,15,14,53,14.30
2013,04,15,14,54,14.30
2013,04,15,14,55,14.40
2013,04,15,14,56,14.40
2013,04,15,14,57,14.50
2013,04,15,14,58,14.60
2013,04,15,14,59,14.60
2013,04,15,15,00,14.70
2013,04,15,15,01,14.80
2013,04,15,15,02,14.90
2013,04,15,15,03,15.00
2013,04,15,15,04,15.00
2013,04,15,15,05,15.10
2013,04,15,15,06,15.20
2013,04,15,15,07,15.30
2013,04,15,15,08,15.20
2013,04,15,15,09,15.00
2013,04,15,15,10,15.00
2013,04,15,15,11,15.00
2013,04,15,15,12,15.00
2013,04,15,15,13,15.00
2013,04,15,15,14,15.00
2013,04,15,15,15,14.90
2013,04,15,15,16,14.80
2013,04,15,15,17,14.80
2013,04,15,15,18,14.80
2013,04,15,15,19,14.80
2013,04,15,15,20,14.70
2013,04,15,15,21,14.70
2013,04,15,15,22,14.60
2013,04,15,15,23,14.50
2013,04,15,15,24,14.30
2013,04,15,15,25,14.10
2013,04,15,15,26,13.90
2013,04,15,15,27,13.80
2013,04,15,15,28,13.70
2013,04,15,15,29,13.50
2013,04,15,15,30,13.40
2013,04,15,15,31,13.30
2013,04,15,15,32,13.20
2013,04,15,15,33,13.00
2013,04,15,15,34,12.90
2013,04,15,15,35,12.80
2013,04,15,15,36,12.90
2013,04,15,15,37,12.90
2013,04,15,15,38,13.00
2013,04,15,15,39,13.10
2013,04,15,15,40,13.20
2013,04,15,15,41,13.30
2013,04,15,15,42,13.40
2013,04,15,15,43,13.50
2013,04,15,15,44,13.60
2013,04,15,15,45,13.80
2013,04,15,15,46,13.90
2013,04,15,15,47,14.10
2013,04,15,15,48,14.20
2013,04,15,15,49,14.30
2013,04,15,15,50,14.40
2013,04,15,15,51,14.50
2013,04,15,15,52,14.60
2013,04,15,15,53,14.60
2013,04,15,15,54,14.70
2013,04,15,15,55,14.70
2013,04,15,15,56,14.80
2013,04,15,15,57,14.80
2013,04,15,15,58,14.80
2013,04,15,15,59,14.80
2013,04,15,16,00,14.80
2013,04,15,16,01,14.90
2013,04,15,16,02,14.90
2013,04,15,16,03,15.00
2013,04,15,16,04,15.00
2013,04,15,16,05,15.00
2013,04,15,16,06,15.00
2013,04,15,16,07,15.00
2013,04,15,16,08,15.00
2013,04,15,16,09,15.00
2013,04,15,16,10,14.90
2013,04,15,16,11,14.80
2013,04,15,16,12,14.70
2013,04,15,16,13,14.70
2013,04,15,16,14,14.60
2013,04,15,16,15,14.60
2013,04,15,16,16,14.60
2013,04,15,16,17,14.50
2013,04,15,16,18,14.50
2013,04,15,16,19,14.50
2013,04,15,16,20,14.40
2013,04,15,16,21,14.40
2013,04,15,16,22,14.40
2013,04,15,16,23,14.30
2013,04,15,16,24,14.30
2013,04,15,16,25,14.20
2013,04,15,16,26,14.20
2013,04,15,16,27,14.10
2013,04,15,16,28,14.10
2013,04,15,16,29,14.10
2013,04,15,16,30,14.10
2013,04,15,16,31,14.00
2013,04,15,16,32,14.00
2013,04,15,16,33,14.00
2013,04,15,16,34,13.90
2013,04,15,16,35,13.90
2013,04,15,16,36,13.90
2013,04,15,16,37,13.90
2013,04,15,16,38,13.90
2013,04,15,16,39,13.90
2013,04,15,16,40,14.00
2013,04,15,16,41,14.00
2013,04,15,16,42,14.00
2013,04,15,16,43,14.00
2013,04,15,16,44,14.10
2013,04,15,16,45,14.10
2013,04,15,16,46,14.20
2013,04,15,16,47,14.20
2013,04,15,16,48,14.30
2013,04,15,16,49,14.40
2013,04,15,16,50,14.50
2013,04,15,16,51,14.70
2013,04,15,16,52,14.90
2013,04,15,16,53,15.00
2013,04,15,16,54,15.00
2013,04,15,16,55,15.20
2013,04,15,16,56,15.40
2013,04,15,16,57,15.50
2013,04,15,16,58,15.60
2013,04,15,16,59,15.70
2013,04,15,17,00,15.80
2013,04,15,17,01,15.90
2013,04,15,17,02,15.90
2013,04,15,17,03,16.00
2013,04,15,17,04,16.10
2013,04,15,17,05,16.20
2013,04,15,17,06,16.30
2013,04,15,17,07,16.40
2013,04,15,17,08,16.50
2013,04,15,17,09,16.50
2013,04,15,17,10,16.60
2013,04,15,17,11,16.70
2013,04,15,17,12,16.70
2013,04,15,17,13,16.80
2013,04,15,17,14,16.80
2013,04,15,17,15,16.80
2013,04,15,17,16,16.80
2013,04,15,17,17,16.80
2013,04,15,17,18,16.90
2013,04,15,17,19,16.90
2013,04,15,17,20,17.00
2013,04,15,17,21,17.00
2013,04,15,17,22,17.10
2013,04,15,17,23,17.20
2013,04,15,17,24,17.20
2013,04,15,17,25,17.30
2013,04,15,17,26,17.30
2013,04,15,17,27,17.20
2013,04,15,17,28,17.20
2013,04,15,17,29,17.30
2013,04,15,17,30,17.30
2013,04,15,17,31,17.40
2013,04,15,17,32,17.40
2013,04,15,17,33,17.50
2013,04,15,17,34,17.50
2013,04,15,17,35,17.60
2013,04,15,17,36,17.60
2013,04,15,17,37,17.60
2013,04,15,17,38,17.50
2013,04,15,17,39,17.50
2013,04,15,17,40,17.40
2013,04,15,17,41,17.20
2013,04,15,17,42,17.10
2013,04,15,17,43,16.90
2013,04,15,17,44,16.80
2013,04,15,17,45,16.70
2013,04,15,17,46,16.50
2013,04,15,17,47,16.30
2013,04,15,17,48,16.20
2013,04,15,17,49,16.00
2013,04,15,17,50,16.00
2013,04,15,17,51,15.90
2013,04,15,17,52,15.80
2013,04,15,17,53,15.80
2013,04,15,17,54,15.80
2013,04,15,17,55,15.70
2013,04,15,17,56,15.70
2013,04,15,17,57,15.70
2013,04,15,17,58,15.70
2013,04,15,17,59,15.70
2013,04,15,18,00,15.70
2013,04,15,18,01,15.70
2013,04,15,18,02,15.80
2013,04,15,18,03,15.80
2013,04,15,18,04,15.80
2013,04,15,18,05,15.90
2013,04,15,18,06,15.90
2013,04,15,18,07,15.90
2013,04,15,18,08,16.00
2013,04,15,18,09,16.00
2013,04,15,18,10,16.00
2013,04,15,18,11,16.00
2013,04,15,18,12,16.00
2013,04,15,18,13,16.00
2013,04,15,18,14,16.10
2013,04,15,18,15,16.20
2013,04,15,18,16,16.30
2013,04,15,18,17,16.40
2013,04,15,18,18,16.50
2013,04,15,18,19,16.60
2013,04,15,18,20,16.70
2013,04,15,18,21,16.80
2013,04,15,18,22,16.90
2013,04,15,18,23,16.90
2013,04,15,18,24,16.90
2013,04,15,18,25,16.90
2013,04,15,18,26,17.00
2013,04,15,18,27,17.00
2013,04,15,18,28,17.00
2013,04,15,18,29,17.00
2013,04,15,18,30,16.90
2013,04,15,18,31,16.90
2013,04,15,18,32,16.80
2013,04,15,18,33,16.80
2013,04,15,18,34,16.80
2013,04,15,18,35,16.70
2013,04,15,18,36,16.70
2013,04,15,18,37,16.70
2013,04,15,18,38,16.70
2013,04,15,18,39,16.60
2013,04,15,18,40,16.60
2013,04,15,18,41,16.60
2013,04,15,18,42,16.50
2013,04,15,18,43,16.50
2013,04,15,18,44,16.40
2013,04,15,18,45,16.30
2013,04,15,18,46,16.20
2013,04,15,18,47,16.10
2013,04,15,18,48,16.00
2013,04,15,18,49,15.80
2013,04,15,18,50,15.70
2013,04,15,18,51,15.50
2013,04,15,18,52,15.40
2013,04,15,18,53,15.40
2013,04,15,18,54,15.30
2013,04,15,18,55,15.20
2013,04,15,18,56,15.10
2013,04,15,18,57,15.00
2013,04,15,18,58,15.00
2013,04,15,18,59,15.00
2013,04,15,19,00,15.00
2013,04,15,19,01,15.00
2013,04,15,19,02,15.00
2013,04,15,19,03,14.90
2013,04,15,19,04,14.80
2013,04,15,19,05,14.80
2013,04,15,19,06,14.70
2013,04,15,19,07,14.70
2013,04,15,19,08,14.60
2013,04,15,19,09,14.60
2013,04,15,19,10,14.60
2013,04,15,19,11,14.50
2013,04,15,19,12,14.50
2013,04,15,19,13,14.40
2013,04,15,19,14,14.40
2013,04,15,19,15,14.40
2013,04,15,19,16,14.40
2013,04,15,19,17,14.30
2013,04,15,19,18,14.20
2013,04,15,19,19,14.20
2013,04,15,19,20,14.10
2013,04,15,19,21,14.10
2013,04,15,19,22,14.00
2013,04,15,19,23,14.00
2013,04,15,19,24,13.90
2013,04,15,19,25,13.90
2013,04,15,19,26,13.90
2013,04,15,19,27,13.90
2013,04,15,19,28,13.80
2013,04,15,19,29,13.80
2013,04,15,19,30,13.80
2013,04,15,19,31,13.80
2013,04,15,19,32,13.80
2013,04,15,19,33,13.80
2013,04,15,19,34,13.80
2013,04,15,19,35,13.80
2013,04,15,19,36,13.70
2013,04,15,19,37,13.70
2013,04,15,19,38,13.70
2013,04,15,19,39,13.70
2013,04,15,19,40,13.60
2013,04,15,19,41,13.60
2013,04,15,19,42,13.60
2013,04,15,19,43,13.60
2013,04,15,19,44,13.50
2013,04,15,19,45,13.50
2013,04,15,19,46,13.40
2013,04,15,19,47,13.40
2013,04,15,19,48,13.30
2013,04,15,19,49,13.30
2013,04,15,19,50,13.30
2013,04,15,19,51,13.30
2013,04,15,19,52,13.20
2013,04,15,19,53,13.20
2013,04,15,19,54,13.10
2013,04,15,19,55,13.10
2013,04,15,19,56,13.10
2013,04,15,19,57,13.10
2013,04,15,19,58,13.00
2013,04,15,19,59,13.00
2013,04,15,20,00,13.00
2013,04,15,20,01,12.90
2013,04,15,20,02,12.90
2013,04,15,20,03,12.90
2013,04,15,20,04,12.90
2013,04,15,20,05,12.80
2013,04,15,20,06,12.80
2013,04,15,20,07,12.80
2013,04,15,20,08,12.70
2013,04,15,20,09,12.70
2013,04,15,20,10,12.60
2013,04,15,20,11,12.60
2013,04,15,20,12,12.50
2013,04,15,20,13,12.40
2013,04,15,20,14,12.40
2013,04,15,20,15,12.30
2013,04,15,20,16,12.20
2013,04,15,20,17,12.20
2013,04,15,20,18,12.20
2013,04,15,20,19,12.10
2013,04,15,20,20,12.00
2013,04,15,20,21,12.00
2013,04,15,20,22,11.90
2013,04,15,20,23,11.90
2013,04,15,20,24,11.80
2013,04,15,20,25,11.80
2013,04,15,20,26,11.70
2013,04,15,20,27,11.70
2013,04,15,20,28,11.60
2013,04,15,20,29,11.60
2013,04,15,20,30,11.50
2013,04,15,20,31,11.50
2013,04,15,20,32,11.40
2013,04,15,20,33,11.30
2013,04,15,20,34,11.30
2013,04,15,20,35,11.20
2013,04,15,20,36,11.20
2013,04,15,20,37,11.20
2013,04,15,20,38,11.10
2013,04,15,20,39,11.10
2013,04,15,20,40,11.00
2013,04,15,20,41,10.90
2013,04,15,20,42,10.90
2013,04,15,20,43,10.80
2013,04,15,20,44,10.80
2013,04,15,20,45,10.70
2013,04,15,20,46,10.70
2013,04,15,20,47,10.60
2013,04,15,20,48,10.50
2013,04,15,20,49,10.50
2013,04,15,20,50,10.40
2013,04,15,20,51,10.40
2013,04,15,20,52,10.30
2013,04,15,20,53,10.30
2013,04,15,20,54,10.30
2013,04,15,20,55,10.20
2013,04,15,20,56,10.20
2013,04,15,20,57,10.10
2013,04,15,20,58,10.10
2013,04,15,20,59,10.10
2013,04,15,21,00,10.00
2013,04,15,21,01,10.00
2013,04,15,21,02,9.90
2013,04,15,21,03,9.90
2013,04,15,21,04,9.90
2013,04,15,21,05,9.80
2013,04,15,21,06,9.80
2013,04,15,21,07,9.80
2013,04,15,21,08,9.70
2013,04,15,21,09,9.70
2013,04,15,21,10,9.70
2013,04,15,21,11,9.60
2013,04,15,21,12,9.60
2013,04,15,21,13,9.60
2013,04,15,21,14,9.50
2013,04,15,21,15,9.50
2013,04,15,21,16,9.40
2013,04,15,21,17,9.40
2013,04,15,21,18,9.40
2013,04,15,21,19,9.30
2013,04,15,21,20,9.30
2013,04,15,21,21,9.30
2013,04,15,21,22,9.30
2013,04,15,21,23,9.20
2013,04,15,21,24,9.20
2013,04,15,21,25,9.10
2013,04,15,21,26,9.10
2013,04,15,21,27,9.00
2013,04,15,21,28,9.00
2013,04,15,21,29,9.00
2013,04,15,21,30,8.90
2013,04,15,21,31,8.90
2013,04,15,21,32,8.90
2013,04,15,21,33,8.90
2013,04,15,21,34,8.80
2013,04,15,21,35,8.80
2013,04,15,21,36,8.80
2013,04,15,21,37,8.80
2013,04,15,21,38,8.80
2013,04,15,21,39,8.80
2013,04,15,21,40,8.80
2013,04,15,21,41,8.80
2013,04,15,21,42,8.80
2013,04,15,21,43,8.80
2013,04,15,21,44,8.70
2013,04,15,21,45,8.70
2013,04,15,21,46,8.70
2013,04,15,21,47,8.70
2013,04,15,21,48,8.70
2013,04,15,21,49,8.70
2013,04,15,21,50,8.60
2013,04,15,21,51,8.60
2013,04,15,21,52,8.60
2013,04,15,21,53,8.60
2013,04,15,21,54,8.60
2013,04,15,21,55,8.60
2013,04,15,21,56,8.60
2013,04,15,21,57,8.60
2013,04,15,21,58,8.60
2013,04,15,21,59,8.60
2013,04,15,22,00,8.60
2013,04,15,22,01,8.60
2013,04,15,22,02,8.60
2013,04,15,22,03,8.60
2013,04,15,22,04,8.60
2013,04,15,22,05,8.60
2013,04,15,22,06,8.60
2013,04,15,22,07,8.60
2013,04,15,22,08,8.60
2013,04,15,22,09,8.50
2013,04,15,22,10,8.50
2013,04,15,22,11,8.50
2013,04,15,22,12,8.50
2013,04,15,22,13,8.40
2013,04,15,22,14,8.40
2013,04,15,22,15,8.40
2013,04,15,22,16,8.40
2013,04,15,22,17,8.40
2013,04,15,22,18,8.40
2013,04,15,22,19,8.40
2013,04,15,22,20,8.30
2013,04,15,22,21,8.30
2013,04,15,22,22,8.30
2013,04,15,22,23,8.30
2013,04,15,22,24,8.30
2013,04,15,22,25,8.30
2013,04,15,22,26,8.20
2013,04,15,22,27,8.20
2013,04,15,22,28,8.20
2013,04,15,22,29,8.20
2013,04,15,22,30,8.10
2013,04,15,22,31,8.10
2013,04,15,22,32,8.10
2013,04,15,22,33,8.10
2013,04,15,22,34,8.10
2013,04,15,22,35,8.10
2013,04,15,22,36,8.00
2013,04,15,22,37,8.00
2013,04,15,22,38,8.00
2013,04,15,22,39,7.90
2013,04,15,22,40,7.90
2013,04,15,22,41,7.90
2013,04,15,22,42,7.90
2013,04,15,22,43,7.90
2013,04,15,22,44,7.90
2013,04,15,22,45,7.90
2013,04,15,22,46,7.80
2013,04,15,22,47,7.80
2013,04,15,22,48,7.80
2013,04,15,22,49,7.80
2013,04,15,22,50,7.80
2013,04,15,22,51,7.80
2013,04,15,22,52,7.80
2013,04,15,22,53,7.80
2013,04,15,22,54,7.70
2013,04,15,22,55,7.70
2013,04,15,22,56,7.70
2013,04,15,22,57,7.70
2013,04,15,22,58,7.70
2013,04,15,22,59,7.70
2013,04,15,23,00,7.60
2013,04,15,23,01,7.60
2013,04,15,23,02,7.60
2013,04,15,23,03,7.60
2013,04,15,23,04,7.60
2013,04,15,23,05,7.60
2013,04,15,23,06,7.60
2013,04,15,23,07,7.60
2013,04,15,23,08,7.50
2013,04,15,23,09,7.50
2013,04,15,23,10,7.50
2013,04,15,23,11,7.50
2013,04,15,23,12,7.50
2013,04,15,23,13,7.40
2013,04,15,23,14,7.40
2013,04,15,23,15,7.40
2013,04,15,23,16,7.40
2013,04,15,23,17,7.40
2013,04,15,23,18,7.40
2013,04,15,23,19,7.40
2013,04,15,23,20,7.40
2013,04,15,23,21,7.40
2013,04,15,23,22,7.40
2013,04,15,23,23,7.40
2013,04,15,23,24,7.40
2013,04,15,23,25,7.40
2013,04,15,23,26,7.40
2013,04,15,23,27,7.30
2013,04,15,23,28,7.30
2013,04,15,23,29,7.30
2013,04,15,23,30,7.30
2013,04,15,23,31,7.30
2013,04,15,23,32,7.30
2013,04,15,23,33,7.30
2013,04,15,23,34,7.30
2013,04,15,23,35,7.30
2013,04,15,23,36,7.30
2013,04,15,23,37,7.30
2013,04,15,23,38,7.30
2013,04,15,23,39,7.30
2013,04,15,23,40,7.30
2013,04,15,23,41,7.30
2013,04,15,23,42,7.30
2013,04,15,23,43,7.30
2013,04,15,23,44,7.30
2013,04,15,23,45,7.20
2013,04,15,23,46,7.20
2013,04,15,23,47,7.20
2013,04,15,23,48,7.20
2013,04,15,23,49,7.20
2013,04,15,23,50,7.20
2013,04,15,23,51,7.20
2013,04,15,23,52,7.20
2013,04,15,23,53,7.20
2013,04,15,23,54,7.20
2013,04,15,23,55,7.20
2013,04,15,23,56,7.20
2013,04,15,23,57,7.20
2013,04,15,23,58,7.20
2013,04,15,23,59,7.10
